CZ-4B R/B (25732 NORAD) Tracking and Keplerian Element Data

This shows tracking and keplerian element data for the satellite.

Feedback or suggestion? Click here.




ElementValue
Catalog25732
NameCZ-4B R/B
Epoch Orbit1347
Epoch Day345.51977424
Epoch Year2018
RAAN358.9302
Inclination98.988
Eccentricity0.0037167
Argument of Perigee349.6049
Mean Anonmoly132.3483
Mean Motion14.17657574
Decay Rate-2.7E-07
L11 25732U 99025C 18345.51977424 -.00000027 00000-0 89976-5 0 9998
L22 25732 98.9880 358.9302 0037167 349.6049 132.3483 14.17657574 13478

Live tracking and technical data element details for CZ-4B R/B (NORAD 25732). CZ-4B R/B can be tracked NOW for your location showing map with azimuth and elevation plus other details from your city location.

Track the satellite on the map from your city or location and see movement details for azimuth, elevation, latitude, longitude, range, height, and movement on the map or in text.







IsCatalogInMostPopularTable: catalog: 25732, numindb: 38
Update: records affected: 1



GetName: 25732 CZ-4B R/B

Hit Count: updated at: Thu, 13 Dec 2018 03:26:46 GMT